Weather History for Page, AZ

Change the Weather History Date:

Tuesday, November 15, 2011

  Actual Average Record
Temperature  
Mean Temperature 50 °F -  
Max Temperature 60 °F 53 °F 68 °F (1963)
Min Temperature 39 °F 34 °F 21 °F (1964)
Degree Days  
Heating Degree Days 16    
Moisture  
Dew Point 34 °F    
Average Humidity 53    
Maximum Humidity 77    
Minimum Humidity 35    
Precipitation  
Precipitation 0.00 in - - ()
Sea Level Pressure  
Sea Level Pressure 29.93 in    
Wind  
Wind Speed 2 mph (NNE)    
Max Wind Speed 9 mph    
Max Gust Speed -    
Visibility 10 miles    
Events      
Averages and records for this station are not official NWS values.
T = Trace of Precipitation, MM = Missing Value Source: NWS Daily Summary

Daily Weather History Graph

Daily Weather History Graph

Search for Another Location

Airport:

Trip Planner

Search our weather history database for the weather conditions in past years. The results will help you decide how hot, cold, wet, or windy it might be!

Date:

Astronomy

Nov. 15, 2011 Rise Set
Actual Time 7:03 AM MST 5:16 PM MST
Civil Twilight 6:36 AM MST 5:44 PM MST
Nautical Twilight 6:05 AM MST 6:15 PM MST
Astronomical Twilight 5:34 AM MST 6:46 PM MST
Moon 9:29 PM MST (11/15) 11:05 AM MST (11/15)
Length of Visible Light 11h 07m
Length of Day
10h 12m
Waning Gibbous, 78% of the Moon is Illuminated
Nov 15
Waning Gibbous
Nov 18
Last Quarter
Nov 24
New
Dec 2
First Quarter
Dec 10
Full

Hourly Weather History & Observations

Time (MST) Temp. Windchill Dew Point Humidity Pressure Visibility Wind Dir Wind Speed Gust Speed Precip Events Conditions
12:53 AM 44.1 °F - 34.0 °F 68% 29.91 in 10.0 mi Calm Calm - N/A   Clear
1:53 AM 46.4 °F - 33.8 °F 62% 29.97 in 10.0 mi Calm Calm - N/A   Clear
2:53 AM 43.0 °F 41.3 °F 33.1 °F 68% 29.90 in 10.0 mi SE 3.5 mph - N/A   Clear
3:53 AM 45.0 °F - 33.1 °F 63% 29.89 in 10.0 mi Calm Calm - N/A   Clear
4:53 AM 39.9 °F - 33.1 °F 77% 29.92 in 10.0 mi Calm Calm - N/A   Clear
5:53 AM 41.0 °F - 33.8 °F 76% 29.99 in 10.0 mi Calm Calm - N/A   Clear
6:53 AM 42.1 °F - 35.1 °F 76% 29.96 in 9.0 mi Calm Calm - N/A   Clear
7:53 AM 46.0 °F - 36.0 °F 68% 29.96 in 10.0 mi Calm Calm - N/A   Clear
8:53 AM 45.0 °F 43.5 °F 36.0 °F 71% 29.98 in 10.0 mi SE 3.5 mph - N/A   Partly Cloudy
9:53 AM 51.1 °F - 36.0 °F 56% 29.97 in 10.0 mi Calm Calm - N/A   Clear
10:53 AM 54.0 °F - 37.0 °F 53% 29.96 in 10.0 mi ENE 4.6 mph - N/A   Clear
11:53 AM 55.0 °F - 37.0 °F 51% 29.95 in 10.0 mi Calm Calm - N/A   Clear
12:53 PM 57.9 °F - 36.0 °F 44% 29.91 in 10.0 mi ENE 4.6 mph - N/A   Clear
1:53 PM 59.0 °F - 35.1 °F 41% 29.87 in 10.0 mi NNE 4.6 mph - N/A   Clear
2:53 PM 60.1 °F - 35.1 °F 39% 29.86 in 10.0 mi NE 9.2 mph - N/A   Clear
3:53 PM 60.1 °F - 33.1 °F 36% 29.85 in 10.0 mi NE 4.6 mph - N/A   Clear
4:53 PM 57.9 °F - 34.0 °F 41% 29.87 in 10.0 mi Calm Calm - N/A   Clear
5:53 PM 57.9 °F - 30.0 °F 35% 29.88 in 10.0 mi Calm Calm - N/A   Overcast
6:53 PM 57.0 °F - 30.0 °F 36% 29.90 in 10.0 mi Calm Calm - N/A   Overcast
7:53 PM 55.0 °F - 28.9 °F 37% 29.92 in 10.0 mi Variable 4.6 mph - N/A   Clear
8:53 PM 54.0 °F - 30.0 °F 40% 29.94 in 10.0 mi West 4.6 mph - N/A   Clear
9:53 PM 53.1 °F - 30.9 °F 43% 29.95 in 10.0 mi WNW 4.6 mph - N/A   Clear
10:53 PM 52.0 °F - 33.1 °F 49% 29.96 in 10.0 mi West 5.8 mph - N/A   Clear
11:53 PM 51.1 °F - 32.0 °F 48% 29.96 in 10.0 mi West 6.9 mph - N/A   Clear